Starlink 1362

operational
NORAD ID: 45538 Int'l Des: 2020-025 Owner: SPXS Country: US Constellation: starlink
LEOCIRCULARSTARLINK_TYPE

关于 Starlink 1362

正在加载描述...

实时位置

正在加载3D地球...

即将过境

高度历史

Altitude vs Time

uPlot chart will show altitude changes over time

两行轨道根数

1 45538U 20025H 25303.29543780 .00000568 00000-0 57048-4 0 9992
2 45538 53.0564 331.7002 0001545 98.5007 261.6157 15.06403349305449
Epoch: Oct 30, 2025 • Age: 15 hours

当前状态

高度 551.8 km
速度 7.59 km/s
星下点 49.36°N, 80.31°E
发射日期 Apr 22, 2020
运行时间 5.5 years
类型 internet

技术详情

分类 Payload
质量 260.00 kg
干质量 248.00 kg
总质量 260.00 kg
长度 0.20 m
直径 2.80 m
跨度 9.00 m
形状 Box + pan
制造商 SPXS
平台类型 Starlink
阶段状态 In Orbit
所有者/国家 SPXS/US

大型星座

Loading constellations...